Change the Weather History Date:

Saturday, October 5, 2013

  Actual Average Record
Temperature  
Mean Temperature 40 °F 49 °F  
Max Temperature 63 °F 64 °F 90 °F (1905)
Min Temperature 16 °F 34 °F 13 °F (1952)
Degree Days  
Heating Degree Days 25 16  
Month to date heating degree days 110 78  
Since 1 July heating degree days 271 404  
Cooling Degree Days 0 0  
Month to date cooling degree days 0 0  
Year to date cooling degree days 520 420  
Moisture  
Dew Point 23 °F    
Average Humidity 56    
Maximum Humidity 92    
Minimum Humidity 20    
Precipitation  
Precipitation 0.00 in 0.02 in 0.58 in (2007)
Month to date precipitation 0.02 0.14  
Year to date precipitation 15.48 11.27  
Snow  
Snow 0.00 in - - ()
Month to date snowfall 0.0  
Since 1 July snowfall 0.0  
Since 1 September snowfall 0.0  
Snow Depth 0.00 in    
Sea Level Pressure  
Sea Level Pressure 30.27 in    
Wind  
Wind Speed 5 mph (West)    
Max Wind Speed 20 mph    
Max Gust Speed 25 mph    
T = Trace of Precipitation, MM = Missing Value Source: NWS Daily Summary

Daily Weather History Graph

Daily Weather History Graph

Search for Another Location

Airport or City:

Trip Planner

Search our weather history database for the weather conditions in past years. The results will help you decide how hot, cold, wet, or windy it might be!

Date:

Astronomy

Oct. 05, 2013 Rise Set
Actual Time 7:12 AM MDT 6:38 PM MDT
Civil Twilight 6:42 AM MDT 7:09 PM MDT
Nautical Twilight 6:06 AM MDT 7:44 PM MDT
Astronomical Twilight 5:30 AM MDT 8:20 PM MDT
Moon 8:00 AM MDT (10/5) 6:52 PM MDT (10/5)
Length of Visible Light 12h 27m
Length of Day
11h 26m
New Moon, 1% of the Moon is Illuminated
Oct 5
New Moon
Oct 11
First Quarter
Oct 18
Full
Oct 26
Last Quarter
Nov 3
New

Hourly Weather History & Observations

Time (MDT) Temp. Windchill Dew Point Humidity Pressure Visibility Wind Dir Wind Speed Gust Speed Precip Events Conditions
12:48 AM 24.1 °F 17.0 °F 21.0 °F 88% 30.43 in - West 5.8 mph - N/A   Unknown
1:48 AM 21.0 °F 16.2 °F 18.0 °F 88% 30.41 in - West 3.5 mph - N/A   Unknown
2:48 AM 19.0 °F - 16.0 °F 88% 30.39 in - Calm Calm - N/A   Unknown
3:48 AM 18.0 °F 11.1 °F 15.1 °F 88% 30.38 in - West 4.6 mph - N/A   Unknown
4:48 AM 18.0 °F - 15.1 °F 88% 30.38 in - Calm Calm - N/A   Unknown
5:48 AM 16.0 °F - 12.9 °F 88% 30.37 in - Calm Calm - N/A   Unknown
6:48 AM 17.1 °F - 14.0 °F 88% 30.36 in - Calm Calm - N/A   Unknown
7:48 AM 19.0 °F - 14.0 °F 81% 30.37 in - Calm Calm - N/A   Unknown
8:48 AM 27.0 °F - 21.9 °F 81% 30.35 in - Calm Calm - N/A   Unknown
9:48 AM 37.0 °F - 28.0 °F 70% 30.33 in - Calm Calm - N/A   Unknown
10:48 AM 46.9 °F - 30.9 °F 54% 30.30 in - WNW 3.5 mph - N/A   Unknown
11:48 AM 53.1 °F - 26.1 °F 35% 30.26 in - West 5.8 mph - N/A   Unknown
12:48 PM 57.0 °F - 23.0 °F 27% 30.21 in - WNW 9.2 mph - N/A   Unknown
1:48 PM 61.0 °F - 21.9 °F 22% 30.18 in - West 18.4 mph 23.0 mph N/A   Unknown
2:48 PM 62.1 °F - 21.9 °F 21% 30.16 in - WNW 18.4 mph - N/A   Unknown
3:48 PM 62.1 °F - 24.1 °F 23% 30.15 in - WNW 12.7 mph 21.9 mph N/A   Unknown
4:48 PM 62.1 °F - 25.0 °F 24% 30.15 in - WNW 15.0 mph - N/A   Unknown
5:48 PM 60.1 °F - 26.1 °F 27% 30.16 in - WNW 10.4 mph - N/A   Unknown
6:48 PM 51.1 °F - 27.0 °F 39% 30.18 in - NW 5.8 mph - N/A   Unknown
7:48 PM 46.9 °F - 27.0 °F 46% 30.19 in - SW 4.6 mph - N/A   Unknown
8:48 PM 42.1 °F - 28.0 °F 58% 30.18 in - Calm Calm - N/A   Unknown
9:48 PM 41.0 °F 38.0 °F 28.0 °F 60% 30.17 in - West 4.6 mph - N/A   Unknown
10:48 PM 36.0 °F 31.1 °F 28.0 °F 73% 30.16 in - West 5.8 mph - N/A   Unknown
11:48 PM 35.1 °F - 28.0 °F 76% 30.15 in - Calm Calm - N/A   Unknown